KE7JVX-3 Weather Reports


Display with metric or nautical units.
time (UTC)temp
F
wind
direction
speed
MPH
gust
MPH
rain 1hr
in
rain 24hr
in
rain mn
in
humidity
%
barometer
mb
20181212102657 35 239 15.0 24.0 0.00 0.00 0.00 57 1010.8
20181212101658 35 242 14.0 25.0 0.00 0.00 0.00 58 1011.0
20181212100656 36 241 16.0 25.0 0.00 0.00 0.00 58 1010.9
20181212095657 35 237 13.0 18.0 0.00 0.00 0.00 59 1011.0
20181212094657 35 241 13.0 20.0 0.00 0.00 0.00 57 1011.1
20181212093656 35 243 15.0 20.0 0.00 0.00 0.00 57 1011.1
20181212092656 36 237 12.0 19.0 0.00 0.00 0.00 55 1011.1
20181212091656 36 228 13.0 16.0 0.00 0.00 0.00 58 1011.2
20181212090656 36 237 12.0 20.0 0.00 0.00 0.00 59 1011.2
20181212085656 36 231 11.0 18.0 0.00 0.00 0.00 58 1011.3
20181212084657 36 228 12.0 16.0 0.00 0.00 0.00 57 1011.3
20181212083656 36 230 10.0 18.0 0.00 0.00 0.00 57 1011.3
20181212082059 37 229 10.0 17.0 0.00 0.00 0.00 56 1011.3
20181212081059 36 236 11.0 18.0 0.00 0.00 0.00 56 1011.4
20181212080101 36 229 11.0 15.0 0.00 0.00 0.00 55 1011.5
20181212075059 37 227 11.0 14.0 0.00 0.00 0.00 53 1011.6
20181212074059 37 227 11.0 16.0 0.00 0.00 0.00 53 1011.7
20181212073100 37 227 12.0 18.0 0.00 0.00 0.00 52 1011.7
20181212072059 37 228 12.0 17.0 0.00 0.00 0.00 52 1011.8
20181212071059 37 227 12.0 18.0 0.00 0.00 0.00 52 1011.8
20181212070100 37 227 13.0 18.0 0.00 0.00 0.00 53 1012.0
20181212065059 37 225 12.0 17.0 0.00 0.00 0.00 56 1012.0
20181212064101 37 224 12.0 16.0 0.00 0.00 0.00 56 1012.1
20181212063100 37 226 11.0 16.0 0.00 0.00 0.00 55 1012.1
20181212062101 37 222 11.0 18.0 0.00 0.00 0.00 55 1012.1
20181212061059 37 221 12.0 17.0 0.00 0.00 0.00 54 1012.1
20181212060101 38 220 11.0 18.0 0.00 0.00 0.00 52 1012.2
20181212053659 38 222 10.0 17.0 0.00 0.00 0.00 50 1012.3
20181212052659 38 221 12.0 18.0 0.00 0.00 0.00 49 1012.3
20181212051659 38 225 11.0 19.0 0.00 0.00 0.00 50 1012.3
20181212050659 38 225 11.0 17.0 0.00 0.00 0.00 50 1012.2
20181212045659 38 216 12.0 19.0 0.00 0.00 0.00 49 1012.2
20181212044700 38 219 10.0 19.0 0.00 0.00 0.00 49 1012.3
20181212043659 38 218 10.0 16.0 0.00 0.00 0.00 48 1012.2
20181212042700 38 216 11.0 16.0 0.00 0.00 0.00 47 1012.2
20181212041700 38 210 12.0 17.0 0.00 0.00 0.00 46 1012.2
20181212040659 38 214 11.0 16.0 0.00 0.00 0.00 45 1012.2
20181212035659 38 208 10.0 19.0 0.00 0.00 0.00 43 1012.2
20181212034700 38 207 11.0 18.0 0.00 0.00 0.00 42 1012.2
20181212032659 38 206 10.0 16.0 0.00 0.00 0.00 43 1012.3
20181212031700 38 214 10.0 19.0 0.00 0.00 0.00 41 1012.2
20181212030659 38 209 10.0 18.0 0.00 0.00 0.00 40 1012.1
20181212025659 38 207 10.0 16.0 0.00 0.00 0.00 40 1012.2
20181212024659 38 205 9.0 17.0 0.00 0.00 0.00 39 1012.2
20181212023659 39 207 10.0 15.0 0.00 0.00 0.00 37 1012.2
20181212022659 38 206 10.0 15.0 0.00 0.00 0.00 38 1012.2
20181212021659 38 205 10.0 14.0 0.00 0.00 0.00 40 1012.2
20181212020659 38 209 8.0 13.0 0.00 0.00 0.00 41 1012.1
20181212015659 38 193 6.0 12.0 0.00 0.00 0.00 41 1012.1
20181212014659 38 196 8.0 12.0 0.00 0.00 0.00 42 1012.1
20181212013659 38 205 8.0 13.0 0.00 0.00 0.00 45 1012.0
20181212012700 38 206 9.0 13.0 0.00 0.00 0.00 45 1011.9
20181212011701 38 205 9.0 13.0 0.00 0.00 0.00 45 1011.9
20181212010658 38 207 9.0 12.0 0.00 0.00 0.00 43 1011.9
20181212005658 38 211 9.0 13.0 0.00 0.00 0.00 42 1011.9
20181212004659 38 209 9.0 15.0 0.00 0.00 0.00 41 1011.9
20181212003659 38 213 10.0 15.0 0.00 0.00 0.00 40 1011.8
20181212002259 38 213 10.0 14.0 0.00 0.00 0.00 46 1011.7
20181212001259 38 213 10.0 14.0 0.00 0.00 0.00 45 1011.7
20181212000259 39 214 8.0 12.0 0.00 0.00 0.00 44 1011.7
20181211235259 40 227 9.0 14.0 0.00 0.00 0.00 42 1011.8
20181211234300 40 225 9.0 15.0 0.00 0.00 0.00 42 1011.8
20181211233300 41 230 10.0 20.0 0.00 0.00 0.00 40 1011.9
20181211232259 41 234 11.0 17.0 0.00 0.00 0.00 38 1011.9
20181211231259 41 229 13.0 18.0 0.00 0.00 0.00 38 1011.8
20181211230259 39 223 10.0 14.0 0.00 0.00 0.00 41 1011.9
20181211225259 38 223 9.0 15.0 0.00 0.00 0.00 43 1011.8
20181211223300 39 229 10.0 15.0 0.00 0.00 0.00 42 1011.8
20181211222259 39 229 11.0 15.0 0.00 0.00 0.00 41 1011.9
20181211221301 39 227 10.0 16.0 0.00 0.00 0.00 41 1011.7
20181211220301 39 225 11.0 17.0 0.00 0.00 0.00 41 1011.7
20181211215302 39 232 11.0 15.0 0.00 0.00 0.00 41 1011.8
20181211214300 39 227 12.0 16.0 0.00 0.00 0.00 41 1011.7
20181211213301 39 223 10.0 17.0 0.00 0.00 0.00 41 1011.7
20181211212302 39 225 12.0 18.0 0.00 0.00 0.00 41 1011.8
20181211211303 39 226 10.0 17.0 0.00 0.00 0.00 39 1011.8
20181211210300 39 222 8.0 15.0 0.00 0.00 0.00 38 1011.8
20181211205259 40 219 9.0 16.0 0.00 0.00 0.00 36 1011.9
20181211203300 40 221 8.0 12.0 0.00 0.00 0.00 34 1011.8
20181211202301 40 206 6.0 12.0 0.00 0.00 0.00 34 1011.8
20181211201259 40 200 7.0 12.0 0.00 0.00 0.00 34 1011.9
20181211200302 40 194 8.0 12.0 0.00 0.00 0.00 33 1012.0
20181211195301 40 175 6.0 12.0 0.00 0.00 0.00 32 1012.1
20181211194300 41 191 7.0 14.0 0.00 0.00 0.00 30 1012.3
20181211193259 41 194 7.0 12.0 0.00 0.00 0.00 30 1012.4
20181211192300 41 158 6.0 14.0 0.00 0.00 0.00 27 1012.5
20181211191300 41 171 6.0 12.0 0.00 0.00 0.00 25 1012.7
20181211190301 42 193 7.0 12.0 0.00 0.00 0.00 26 1012.8
20181211183300 41 185 4.0 8.0 0.00 0.00 0.00 29 1013.3
20181211182259 41 199 3.0 6.0 0.00 0.00 0.00 29 1013.6
20181211181259 41 204 3.0 7.0 0.00 0.00 0.00 31 1013.8
20181211180301 41 225 4.0 9.0 0.00 0.00 0.00 29 1013.9
20181211175259 41 227 6.0 13.0 0.00 0.00 0.00 31 1013.9
20181211174300 41 207 5.0 10.0 0.00 0.00 0.00 28 1013.9
20181211173301 41 224 5.0 12.0 0.00 0.00 0.00 26 1013.9
20181211172300 42 227 5.0 10.0 0.00 0.00 0.00 26 1013.9
20181211171259 42 208 5.0 9.0 0.00 0.00 0.00 26 1013.9
20181211170259 41 225 5.0 11.0 0.00 0.00 0.00 27 1013.9
20181211165300 42 207 6.0 13.0 0.00 0.00 0.00 27 1013.7
20181211164300 42 208 7.0 11.0 0.00 0.00 0.00 24 1013.6
20181211163259 42 205 5.0 12.0 0.00 0.00 0.00 24 1013.5
20181211162300 42 212 8.0 13.0 0.00 0.00 0.00 24 1013.7
20181211161300 41 207 7.0 11.0 0.00 0.00 0.00 26 1013.7
20181211160259 41 214 6.0 11.0 0.00 0.00 0.00 26 1013.6
20181211155259 40 215 6.0 12.0 0.00 0.00 0.00 27 1013.6
20181211154300 40 230 7.0 12.0 0.00 0.00 0.00 26 1013.6
20181211153259 40 219 7.0 12.0 0.00 0.00 0.00 27 1013.6
20181211152300 40 222 6.0 11.0 0.00 0.00 0.00 28 1013.5
20181211151302 39 206 7.0 12.0 0.00 0.00 0.00 27 1013.5
20181211150259 39 217 8.0 11.0 0.00 0.00 0.00 26 1013.5
20181211145259 40 217 7.0 11.0 0.00 0.00 0.00 26 1013.5
20181211144301 39 224 6.0 10.0 0.00 0.00 0.00 26 1013.5
20181211143300 39 219 6.0 10.0 0.00 0.00 0.00 27 1013.5
20181211142259 40 218 7.0 11.0 0.00 0.00 0.00 24 1013.3
20181211141259 39 230 5.0 12.0 0.00 0.00 0.00 25 1013.2
20181211140259 40 222 8.0 13.0 0.00 0.00 0.00 26 1013.3
20181211135300 40 223 9.0 12.0 0.00 0.00 0.00 24 1013.3
20181211134259 40 222 8.0 13.0 0.00 0.00 0.00 24 1013.2
20181211133259 40 222 8.0 12.0 0.00 0.00 0.00 26 1013.1
20181211132259 39 225 8.0 13.0 0.00 0.00 0.00 27 1013.1
20181211131259 39 225 9.0 12.0 0.00 0.00 0.00 30 1013.1
20181211130259 39 230 6.0 11.0 0.00 0.00 0.00 31 1013.1
20181211125259 39 232 5.0 12.0 0.00 0.00 0.00 31 1012.9
20181211124259 39 226 7.0 12.0 0.00 0.00 0.00 30 1012.9
20181211123259 39 229 7.0 10.0 0.00 0.00 0.00 28 1012.8
20181211122300 39 227 7.0 10.0 0.00 0.00 0.00 28 1012.7
20181211121259 40 226 7.0 13.0 0.00 0.00 0.00 26 1012.8
20181211120259 40 229 9.0 11.0 0.00 0.00 0.00 26 1012.8
20181211115259 39 227 7.0 13.0 0.00 0.00 0.00 26 1012.8
20181211114259 39 227 8.0 10.0 0.00 0.00 0.00 26 1012.9
20181211113302 39 227 7.0 13.0 0.00 0.00 0.00 26 1012.8
20181211112300 39 229 8.0 12.0 0.00 0.00 0.00 26 1012.9
20181211111259 39 230 9.0 12.0 0.00 0.00 0.00 26 1013.0
20181211110259 39 229 8.0 12.0 0.00 0.00 0.00 26 1013.1
20181211105300 39 234 7.0 13.0 0.00 0.00 0.00 27 1013.2
20181211104259 39 241 9.0 15.0 0.00 0.00 0.00 25 1013.2
20181211103259 39 235 7.0 12.0 0.00 0.00 0.00 27 1013.2